Location: ???? ?????
(30.0052°N, 31.2891°E)
Time: 07:08:39
(UTC+00:00)

SEDSat Delta rocket - Pass Details

Date: 06 October 2022
Orbit: 532 x 995 km, 31.4° (Epoch: 04 December)

Event Time Altitude Azimuth Distance (km) Brightness Sun altitude
Rises 17:11:21 0° 281° (WNW) 3,280 8.3 -21.8°
Reaches altitude 10° 17:13:45 10° 279° (W) 2,420 7.2 -22.3°
Maximum altitude 17:19:33 67° 198° (SSW) 966 3.9 -23.5°
Enters shadow 17:21:20 47° 135° (SE) 1,201 4.1 -23.9°
